Location: Asheville, NC
(35.6000°N, 82.5500°W)
Time: 14:13:48
(UTC-04:00)

JUGNU - Pass Details

Date: 08 January 2018
Orbit: 837 x 864 km, 20.0° (Epoch: 18 July)

Event Time Altitude Azimuth Distance (km) Brightness Sun altitude
Rises 18:41:26 0° 242° (WSW) 3,415 ? -13.5°
Reaches altitude 10° 18:44:57 10° 222° (SW) 2,481 ? -14.2°
Maximum altitude 18:48:34 17° 184° (S) 2,057 ? -14.9°
Drops below altitude 10° 18:52:11 10° 147° (SSE) 2,483 ? -15.6°
Enters shadow 18:54:40 - 131° (SE) 3,117 ? -16.1°
